FW6251 Weather Reports


time (UTC)temp
F
wind
direction
speed
knots
gust
knots
rain 1hr
in
rain 24hr
in
rain mn
in
humidity
%
barometer
mb
20260505161532 80 209 1.7 5.2 0.00 0.00 0.00 82 1005.8
20260505153049 80 219 0.9 6.1 0.00 0.00 0.00 81 1005.9
20260505151605 81 235 0.9 7.8 0.00 0.00 0.00 80 1005.8
20260505124541 87 208 0.9 10.4 0.00 0.00 0.00 67 1005.4
20260505123055 88 185 2.6 9.6 0.00 0.00 0.00 65 1005.4
20260505121503 88 183 2.6 10.4 0.00 0.00 0.00 62 1005.6
20260505120004 88 190 1.7 11.3 0.00 0.00 0.00 63 1005.9
20260505114508 89 190 2.6 9.6 0.00 0.00 0.00 60 1006.1
20260505113004 88 167 1.7 10.4 0.00 0.00 0.00 61 1006.3
20260505111505 88 186 2.6 13.0 0.00 0.00 0.00 63 1006.4
20260505110127 87 149 9.6 14.8 0.00 0.00 0.00 61 1006.7
20260505101526 87 188 5.2 11.3 0.00 0.00 0.00 63 1008.0
20260505100107 87 194 4.3 11.3 0.00 0.00 0.00 63 1008.4
20260505094549 86 148 1.7 13.9 0.00 0.00 0.00 63 1008.5
20260505093057 86 140 2.6 11.3 0.00 0.00 0.00 64 1008.9
20260505091502 85 196 4.3 13.9 0.00 0.00 0.00 66 1009.2
20260505084602 84 139 7.8 13.9 0.00 0.00 0.00 68 1009.9
20260505083108 83 205 7.8 14.8 0.00 0.00 0.00 69 1010.2
20260505081521 83 179 5.2 13.0 0.00 0.00 0.00 69 1010.3
20260505080119 82 159 5.2 13.9 0.00 0.00 0.00 70 1010.3
20260505074557 82 143 9.6 14.8 0.00 0.00 0.00 70 1010.3
20260505073003 81 165 3.5 15.6 0.00 0.00 0.00 72 1010.3
20260505071519 80 186 7.0 13.0 0.00 0.00 0.00 73 1010.5
20260505070002 79 161 5.2 14.8 0.00 0.00 0.00 74 1010.5
20260505064511 79 150 4.3 14.8 0.00 0.00 0.00 74 1010.4
20260505063013 78 176 6.1 10.4 0.00 0.00 0.00 75 1010.4
20260505061549 78 149 7.8 13.0 0.00 0.00 0.00 75 1010.6
20260505060107 77 119 7.0 13.0 0.00 0.00 0.00 77 1010.3
20260505054558 75 144 7.0 13.9 0.00 0.00 0.00 79 1010.3
20260505053057 74 211 5.2 13.9 0.00 0.00 0.00 81 1010.2
20260505051503 73 133 4.3 10.4 0.00 0.00 0.00 82 1010.2
20260505041603 72 169 2.6 7.8 0.00 0.00 0.00 83 1010.1
20260505040109 72 183 1.7 7.0 0.00 0.00 0.00 82 1010.0
20260505034506 73 166 3.5 7.0 0.00 0.00 0.00 82 1009.9
20260505033011 73 151 2.6 7.8 0.00 0.00 0.00 81 1009.8
20260505031535 73 148 3.5 7.0 0.00 0.00 0.00 81 1009.8
20260505030101 73 138 2.6 9.6 0.00 0.00 0.00 81 1009.6
20260505024607 73 140 1.7 6.1 0.00 0.00 0.00 81 1009.3
20260505023048 73 167 2.6 7.8 0.00 0.00 0.00 81 1009.4
20260505021600 74 182 2.6 8.7 0.00 0.00 0.00 80 1009.5
20260505020116 74 118 4.3 9.6 0.00 0.00 0.00 79 1009.3
20260505014600 74 139 6.1 10.4 0.00 0.00 0.00 79 1009.4
20260505013052 75 142 7.0 13.9 0.00 0.00 0.00 78 1009.3
20260505011604 75 194 5.2 9.6 0.00 0.00 0.00 77 1009.4
20260505010112 76 155 6.1 10.4 0.00 0.00 0.00 77 1009.5
20260505004556 76 132 6.1 12.2 0.00 0.00 0.00 77 1009.7
20260505003032 76 149 6.1 9.6 0.00 0.00 0.00 76 1009.8
20260505001543 76 170 3.5 10.4 0.00 0.00 0.00 76 1009.8
20260505000044 77 144 5.2 10.4 0.00 0.00 0.00 75 1010.0
20260504234537 77 142 6.1 13.0 0.00 0.00 0.00 75 1010.0
20260504233048 78 161 6.1 12.2 0.00 0.00 0.00 74 1010.3
20260504231620 78 162 3.5 9.6 0.00 0.00 0.00 73 1010.4
20260504230052 78 130 5.2 10.4 0.00 0.00 0.00 73 1010.7
20260504224549 79 150 4.3 10.4 0.00 0.00 0.00 72 1010.7
20260504223054 79 155 4.3 11.3 0.00 0.00 0.00 72 1010.7
20260504221505 79 188 5.2 10.4 0.00 0.00 0.00 72 1010.9
20260504220120 79 162 3.5 9.6 0.00 0.00 0.00 72 1011.1
20260504214603 79 156 4.3 8.7 0.00 0.00 0.00 73 1011.3
20260504213018 79 180 3.5 9.6 0.00 0.00 0.00 73 1011.3
20260504211532 79 161 4.3 10.4 0.00 0.00 0.00 73 1011.3
20260504210047 79 184 6.1 9.6 0.00 0.00 0.00 73 1011.4
20260504204538 80 157 4.3 12.2 0.00 0.00 0.00 73 1011.4
20260504203050 80 137 6.1 13.0 0.00 0.00 0.00 72 1011.5
20260504201510 80 119 6.1 11.3 0.00 0.00 0.00 73 1011.7
20260504200034 80 182 3.5 7.0 0.00 0.00 0.00 74 1011.7
20260504194550 80 169 1.7 9.6 0.00 0.00 0.00 74 1011.7
20260504193058 80 195 3.5 9.6 0.00 0.00 0.00 74 1011.6
20260504191532 80 160 4.3 10.4 0.00 0.00 0.00 75 1011.7
20260504190006 80 193 4.3 10.4 0.00 0.00 0.00 75 1011.7
20260504184541 80 193 4.3 8.7 0.00 0.00 0.00 75 1011.9
20260504183038 80 170 5.2 9.6 0.00 0.00 0.00 76 1011.9
20260504181548 81 205 4.3 7.8 0.00 0.00 0.00 74 1011.8
20260504180103 82 192 3.5 8.7 0.00 0.00 0.00 73 1011.9
20260504174600 82 181 2.6 11.3 0.00 0.00 0.00 73 1011.9
20260504173017 82 167 3.5 9.6 0.00 0.00 0.00 73 1011.8
20260504171518 82 182 7.0 13.9 0.00 0.00 0.00 73 1011.6